Location: Baia Mare
(47.6567°N, 23.5850°E)
Time: 23:36:54
(UTC+02:00)

Envisat - Visible Passes

Search period start: 21 January 2022 00:00
Search period end: 31 January 2022 00:00
Orbit: 764 x 766 km, 98.2° (Epoch: 21 January)

Date Brightness Start Highest point End Pass type
(mag) Time Alt. Az. Time Alt. Az. Time Alt. Az.
21 Jan 5.0 04:27:14 10° NE 04:31:25 25° E 04:35:35 10° SSE visible
21 Jan 3.2 06:05:47 10° N 06:10:40 47° WNW 06:15:30 10° SW visible
22 Jan 5.9 03:52:09 10° ENE 03:54:05 12° E 03:56:01 10° ESE visible
22 Jan 2.9 05:28:45 10° NNE 05:33:53 86° ESE 05:38:57 10° SSW visible
22 Jan 4.5 07:09:12 10° NNW 07:12:13 16° WNW 07:15:14 10° W visible
23 Jan 4.1 04:52:04 10° NNE 04:56:54 41° E 05:01:41 10° SSE visible
23 Jan 3.7 06:31:23 10° N 06:35:46 30° WNW 06:40:07 10° WSW visible
23 Jan 5.9 17:51:19 10° SW 17:54:20 16° W 17:57:24 10° NW visible
24 Jan 5.3 04:15:58 10° NE 04:19:42 20° E 04:23:26 10° SE visible
24 Jan 3.0 05:54:07 10° N 05:59:07 59° WNW 06:04:05 10° SSW visible
25 Jan 3.2 05:17:11 10° NNE 05:22:16 69° ESE 05:27:19 10° S visible
25 Jan 4.3 06:57:13 10° NNW 07:00:46 19° WNW 07:04:19 10° WSW visible
26 Jan 4.5 04:40:38 10° NNE 04:45:14 33° E 04:49:47 10° SSE visible
26 Jan 3.5 06:19:38 10° N 06:24:16 36° WNW 06:28:52 10° SW visible
27 Jan 5.6 04:04:49 10° NE 04:07:59 16° E 04:11:07 10° SE visible
27 Jan 2.8 05:42:28 10° N 05:47:33 73° WNW 05:52:36 10° SSW visible
27 Jan 4.7 07:23:37 10° NNW 07:25:41 12° NW 07:27:45 10° WNW visible
28 Jan 3.6 05:05:38 10° NNE 05:10:39 55° E 05:15:37 10° S visible
28 Jan 4.1 06:45:21 10° N 06:49:19 23° WNW 06:53:16 10° WSW visible
28 Jan 6.3 18:06:32 10° WSW 18:08:14 12° W 18:09:56 10° WNW visible
29 Jan 4.9 04:29:15 10° NE 04:33:33 27° E 04:37:49 10° SSE visible
29 Jan 3.2 06:07:54 10° N 06:12:44 44° WNW 06:17:32 10° SW visible
30 Jan 5.9 03:53:56 10° ENE 03:56:13 13° E 03:58:31 10° ESE visible
30 Jan 2.9 05:30:51 10° NNE 05:35:58 90° WNW 05:41:03 10° SSW visible
30 Jan 4.5 07:11:25 10° NNW 07:14:15 15° NW 07:17:06 10° W visible
